Weather in Kurlin

Russia / Orenburg Oblast     51°48′07″N   50°58′20″E
temp.,
°C
wind,
m/s
gust,
m/s
humid.,
%
clouds,
%
prec.,
mm/h
press.,
hPa
HPBL,
m
27 february, sat
sat2723:00−10sse71295100 0.6 1013380
02:00−8sse91595100 3.8 1007434
05:00−2s71297100 7.8 1003364
08:00+2w61199100 0.9 1001313
11:00+1w510100100 0.9 1001389
14:00+1wsw511100100 0.1 1001456
17:00+1wsw510100100 0.1 1001498
20:000wsw5998100 0.1 1000442
28 february, sun
sun2823:000wsw5998100 0.3 1000467
02:000wsw51098100 0.8 999480
05:00−6w6995100 2.3 1000289
08:00−12nw7129298 0.3 1002402
11:00−13nw7129199 0.4 1004394
14:00−13nw71092100 0.0 1007416
17:00−13nw61091100 0.1 1009495
20:00−15wnw4995100 0.0 1011222
1 march, mon
mon123:00−17nw479694 0.1 1014136
02:00−19wnw469617 0.0 101593
05:00−19wnw469732 0.0 101699
08:00−16nw489478 0.1 1018244
11:00−17nw479482 0.1 1020245
14:00−16nw469226 0.0 1021273
17:00−16nw479343 0.0 1022272
20:00−20nw34971 0.0 102340
2 march, tue
tue223:00−20wnw33981 0.0 102428
02:00−21w34980 0.0 102333
05:00−20wsw34990 0.0 102239
08:00−19sw469966 0.0 102098
11:00−15ssw699578 0.0 1018266
14:00−10ssw71294100 0.1 1015381
17:00−6ssw81595100 0.6 1011682
20:00−4sw81495100 1.2 1007717
3 march, wed
wed323:00−3sw71396100 2.1 1005571
02:00−3sw61096100 0.7 1003355
05:00−2wnw5895100 1.0 1003331
08:00−8w589666 0.0 1003143
11:00−7w599567 0.0 1004265
14:00−4wnw6109298 0.0 1004483
17:00−3wnw7119399 0.2 1005676
20:00−4wnw61194100 0.2 1006415